| time (UTC) | temp F | wind direction | speed MPH | gust MPH | rain 1hr in | rain 24hr in | rain mn in | humidity % | barometer mb |
| 20260504031549 | 64 | 0 | 0.0 | 0.0 | 0.00 | 0.00 | 0.00 | 51 | 1016.2 |
| 20260504031029 | 64 | 0 | 0.0 | 0.0 | 0.00 | 0.00 | 0.00 | 51 | 1016.1 |
| 20260504030530 | 64 | 0 | 0.0 | 0.0 | 0.00 | 0.00 | 0.00 | 51 | 1016.0 |
| 20260504030042 | 64 | 0 | 0.0 | 0.0 | 0.00 | 0.00 | 0.00 | 51 | 1016.0 |
| 20260504025529 | 64 | 0 | 0.0 | 0.0 | 0.00 | 0.00 | 0.00 | 51 | 1016.0 |
| 20260504025029 | 64 | 0 | 0.0 | 0.0 | 0.00 | 0.00 | 0.00 | 51 | 1016.0 |
| 20260504024550 | 65 | 0 | 0.0 | 0.0 | 0.00 | 0.00 | 0.00 | 50 | 1016.1 |
| 20260504024029 | 65 | 0 | 0.0 | 1.0 | 0.00 | 0.00 | 0.00 | 50 | 1016.1 |
| 20260504023529 | 65 | 0 | 0.0 | 1.0 | 0.00 | 0.00 | 0.00 | 50 | 1016.1 |
| 20260504023048 | 65 | 0 | 0.0 | 1.0 | 0.00 | 0.00 | 0.00 | 50 | 1016.1 |
| 20260504022550 | 65 | 0 | 0.0 | 0.0 | 0.00 | 0.00 | 0.00 | 50 | 1016.0 |
| 20260504022032 | 66 | 0 | 0.0 | 0.0 | 0.00 | 0.00 | 0.00 | 50 | 1016.1 |
| 20260504021547 | 66 | 0 | 0.0 | 0.0 | 0.00 | 0.00 | 0.00 | 49 | 1016.1 |
| 20260504021030 | 66 | 0 | 0.0 | 0.0 | 0.00 | 0.00 | 0.00 | 49 | 1016.1 |
| 20260504020528 | 66 | 0 | 0.0 | 0.0 | 0.00 | 0.00 | 0.00 | 49 | 1016.1 |
| 20260504020042 | 67 | 0 | 0.0 | 0.0 | 0.00 | 0.00 | 0.00 | 48 | 1016.1 |
| 20260504015530 | 67 | 0 | 0.0 | 0.0 | 0.00 | 0.00 | 0.00 | 47 | 1016.1 |
| 20260504015032 | 67 | 0 | 0.0 | 0.0 | 0.00 | 0.00 | 0.00 | 46 | 1016.1 |
| 20260504014545 | 68 | 0 | 0.0 | 0.0 | 0.00 | 0.00 | 0.00 | 46 | 1016.1 |
| 20260504014032 | 68 | 0 | 0.0 | 0.0 | 0.00 | 0.00 | 0.00 | 45 | 1015.9 |
| 20260504013530 | 68 | 0 | 0.0 | 0.0 | 0.00 | 0.00 | 0.00 | 44 | 1015.8 |
| 20260504013051 | 69 | 0 | 0.0 | 0.0 | 0.00 | 0.00 | 0.00 | 44 | 1015.7 |
| 20260504012531 | 69 | 0 | 0.0 | 0.0 | 0.00 | 0.00 | 0.00 | 43 | 1015.8 |
| 20260504012031 | 70 | 0 | 0.0 | 0.0 | 0.00 | 0.00 | 0.00 | 42 | 1015.8 |
| 20260504011547 | 70 | 0 | 0.0 | 0.0 | 0.00 | 0.00 | 0.00 | 41 | 1015.8 |
| 20260504011030 | 71 | 0 | 0.0 | 0.0 | 0.00 | 0.00 | 0.00 | 39 | 1015.9 |
| 20260504010529 | 72 | 0 | 0.0 | 0.0 | 0.00 | 0.00 | 0.00 | 38 | 1015.9 |
| 20260504010057 | 72 | 0 | 0.0 | 2.0 | 0.00 | 0.00 | 0.00 | 38 | 1015.9 |
| 20260504005529 | 73 | 0 | 0.0 | 2.0 | 0.00 | 0.00 | 0.00 | 36 | 1015.9 |
| 20260504005030 | 73 | 0 | 0.0 | 1.0 | 0.00 | 0.00 | 0.00 | 35 | 1015.8 |
| 20260504004542 | 74 | 0 | 0.0 | 2.0 | 0.00 | 0.00 | 0.00 | 34 | 1015.9 |
| 20260504004031 | 74 | 0 | 0.0 | 3.0 | 0.00 | 0.00 | 0.00 | 33 | 1015.9 |
| 20260504003530 | 75 | 0 | 0.0 | 3.0 | 0.00 | 0.00 | 0.00 | 31 | 1015.8 |
| 20260504003041 | 75 | 0 | 0.0 | 3.0 | 0.00 | 0.00 | 0.00 | 31 | 1015.8 |
| 20260504002529 | 76 | 0 | 0.0 | 3.0 | 0.00 | 0.00 | 0.00 | 31 | 1015.8 |
| 20260504002029 | 76 | 0 | 0.0 | 4.0 | 0.00 | 0.00 | 0.00 | 30 | 1015.9 |
| 20260504001541 | 76 | 40 | 0.0 | 4.0 | 0.00 | 0.00 | 0.00 | 29 | 1016.0 |
| 20260504001031 | 77 | 0 | 0.0 | 4.0 | 0.00 | 0.00 | 0.00 | 29 | 1016.1 |
| 20260504000531 | 77 | 40 | 1.0 | 5.0 | 0.00 | 0.00 | 0.00 | 28 | 1016.0 |
| 20260504000047 | 77 | 40 | 0.0 | 5.0 | 0.00 | 0.00 | 0.00 | 27 | 1016.1 |
| 20260503235530 | 78 | 40 | 0.0 | 5.0 | 0.00 | 0.00 | 0.00 | 29 | 1016.0 |
| 20260503235029 | 78 | 0 | 0.0 | 5.0 | 0.00 | 0.00 | 0.00 | 29 | 1016.0 |
| 20260503234542 | 78 | 0 | 0.0 | 5.0 | 0.00 | 0.00 | 0.00 | 27 | 1016.1 |
| 20260503234029 | 78 | 39 | 0.0 | 5.0 | 0.00 | 0.00 | 0.00 | 28 | 1016.1 |
| 20260503233529 | 79 | 0 | 0.0 | 5.0 | 0.00 | 0.00 | 0.00 | 29 | 1016.1 |
| 20260503233046 | 79 | 39 | 0.0 | 5.0 | 0.00 | 0.00 | 0.00 | 28 | 1016.2 |
| 20260503232529 | 79 | 0 | 2.0 | 5.0 | 0.00 | 0.00 | 0.00 | 25 | 1016.3 |
| 20260503232111 | 79 | 0 | 0.0 | 5.0 | 0.00 | 0.00 | 0.00 | 27 | 1016.3 |
| 20260503231541 | 80 | 0 | 1.0 | 5.0 | 0.00 | 0.00 | 0.00 | 26 | 1016.3 |
| 20260503231030 | 80 | 39 | 0.0 | 4.0 | 0.00 | 0.00 | 0.00 | 26 | 1016.3 |
| 20260503230530 | 80 | 40 | 1.0 | 4.0 | 0.00 | 0.00 | 0.00 | 25 | 1016.3 |
| 20260503230054 | 80 | 40 | 1.0 | 4.0 | 0.00 | 0.00 | 0.00 | 24 | 1016.4 |
| 20260503225529 | 81 | 0 | 0.0 | 5.0 | 0.00 | 0.00 | 0.00 | 26 | 1016.5 |
| 20260503225031 | 80 | 0 | 0.0 | 5.0 | 0.00 | 0.00 | 0.00 | 24 | 1016.5 |
| 20260503224546 | 80 | 0 | 0.0 | 5.0 | 0.00 | 0.00 | 0.00 | 24 | 1016.5 |
| 20260503224029 | 80 | 40 | 0.0 | 6.0 | 0.00 | 0.00 | 0.00 | 26 | 1016.5 |
| 20260503223531 | 81 | 0 | 2.0 | 6.0 | 0.00 | 0.00 | 0.00 | 23 | 1016.5 |
| 20260503223042 | 81 | 40 | 0.0 | 7.0 | 0.00 | 0.00 | 0.00 | 24 | 1016.5 |
| 20260503222530 | 81 | 0 | 1.0 | 7.0 | 0.00 | 0.00 | 0.00 | 24 | 1016.6 |
| 20260503222029 | 81 | 40 | 1.0 | 4.0 | 0.00 | 0.00 | 0.00 | 24 | 1016.6 |
| 20260503221541 | 81 | 0 | 0.0 | 5.0 | 0.00 | 0.00 | 0.00 | 26 | 1016.6 |
| 20260503221030 | 81 | 40 | 1.0 | 5.0 | 0.00 | 0.00 | 0.00 | 23 | 1016.6 |
| 20260503220529 | 81 | 0 | 2.0 | 5.0 | 0.00 | 0.00 | 0.00 | 24 | 1016.8 |
| 20260503220054 | 82 | 40 | 0.0 | 4.0 | 0.00 | 0.00 | 0.00 | 26 | 1016.7 |
| 20260503215528 | 82 | 40 | 0.0 | 4.0 | 0.00 | 0.00 | 0.00 | 25 | 1016.8 |
| 20260503215029 | 82 | 0 | 1.0 | 4.0 | 0.00 | 0.00 | 0.00 | 26 | 1016.9 |
| 20260503214547 | 82 | 39 | 0.0 | 5.0 | 0.00 | 0.00 | 0.00 | 25 | 1017.0 |
| 20260503214030 | 82 | 39 | 0.0 | 5.0 | 0.00 | 0.00 | 0.00 | 24 | 1017.0 |
| 20260503213530 | 82 | 0 | 1.0 | 5.0 | 0.00 | 0.00 | 0.00 | 25 | 1017.1 |
| 20260503213045 | 82 | 0 | 0.0 | 5.0 | 0.00 | 0.00 | 0.00 | 25 | 1017.2 |
| 20260503212530 | 82 | 40 | 0.0 | 5.0 | 0.00 | 0.00 | 0.00 | 25 | 1017.3 |
| 20260503212030 | 83 | 0 | 0.0 | 3.0 | 0.00 | 0.00 | 0.00 | 28 | 1017.4 |
| 20260503211540 | 83 | 0 | 0.0 | 3.0 | 0.00 | 0.00 | 0.00 | 26 | 1017.4 |
| 20260503211029 | 83 | 0 | 1.0 | 3.0 | 0.00 | 0.00 | 0.00 | 24 | 1017.4 |
| 20260503210529 | 83 | 0 | 0.0 | 3.0 | 0.00 | 0.00 | 0.00 | 24 | 1017.5 |
| 20260503210041 | 83 | 0 | 0.0 | 3.0 | 0.00 | 0.00 | 0.00 | 23 | 1017.5 |
| 20260503205529 | 83 | 0 | 0.0 | 5.0 | 0.00 | 0.00 | 0.00 | 25 | 1017.6 |
| 20260503205031 | 83 | 0 | 0.0 | 5.0 | 0.00 | 0.00 | 0.00 | 23 | 1017.8 |
| 20260503204548 | 83 | 0 | 1.0 | 5.0 | 0.00 | 0.00 | 0.00 | 24 | 1017.9 |
| 20260503204030 | 83 | 0 | 0.0 | 5.0 | 0.00 | 0.00 | 0.00 | 26 | 1017.9 |
| 20260503203529 | 82 | 0 | 1.0 | 5.0 | 0.00 | 0.00 | 0.00 | 22 | 1018.1 |
| 20260503203049 | 83 | 0 | 1.0 | 5.0 | 0.00 | 0.00 | 0.00 | 23 | 1018.1 |
| 20260503202529 | 83 | 0 | 0.0 | 3.0 | 0.00 | 0.00 | 0.00 | 23 | 1018.2 |
| 20260503202029 | 83 | 0 | 0.0 | 4.0 | 0.00 | 0.00 | 0.00 | 24 | 1018.3 |
| 20260503201544 | 83 | 0 | 0.0 | 4.0 | 0.00 | 0.00 | 0.00 | 25 | 1018.4 |
| 20260503201029 | 83 | 0 | 1.0 | 4.0 | 0.00 | 0.00 | 0.00 | 21 | 1018.5 |
| 20260503200529 | 83 | 0 | 0.0 | 5.0 | 0.00 | 0.00 | 0.00 | 23 | 1018.5 |
| 20260503200049 | 83 | 0 | 0.0 | 5.0 | 0.00 | 0.00 | 0.00 | 22 | 1018.6 |
| 20260503195530 | 83 | 0 | 0.0 | 3.0 | 0.00 | 0.00 | 0.00 | 22 | 1018.8 |
| 20260503195029 | 83 | 0 | 0.0 | 2.0 | 0.00 | 0.00 | 0.00 | 26 | 1018.7 |
| 20260503194547 | 83 | 0 | 0.0 | 2.0 | 0.00 | 0.00 | 0.00 | 26 | 1018.8 |
| 20260503194029 | 82 | 0 | 0.0 | 5.0 | 0.00 | 0.00 | 0.00 | 23 | 1018.8 |
| 20260503193529 | 82 | 0 | 0.0 | 5.0 | 0.00 | 0.00 | 0.00 | 23 | 1018.9 |
| 20260503193049 | 82 | 0 | 0.0 | 4.0 | 0.00 | 0.00 | 0.00 | 26 | 1019.1 |
| 20260503192529 | 82 | 40 | 0.0 | 4.0 | 0.00 | 0.00 | 0.00 | 24 | 1019.2 |
| 20260503192029 | 82 | 40 | 0.0 | 3.0 | 0.00 | 0.00 | 0.00 | 25 | 1019.3 |
| 20260503191542 | 82 | 0 | 0.0 | 4.0 | 0.00 | 0.00 | 0.00 | 24 | 1019.3 |
| 20260503191029 | 82 | 0 | 0.0 | 4.0 | 0.00 | 0.00 | 0.00 | 26 | 1019.5 |
| 20260503190529 | 82 | 40 | 0.0 | 4.0 | 0.00 | 0.00 | 0.00 | 26 | 1019.4 |
| 20260503190046 | 82 | 0 | 0.0 | 4.0 | 0.00 | 0.00 | 0.00 | 27 | 1019.5 |
| 20260503185529 | 82 | 0 | 0.0 | 4.0 | 0.00 | 0.00 | 0.00 | 27 | 1019.6 |
| 20260503185030 | 82 | 40 | 0.0 | 3.0 | 0.00 | 0.00 | 0.00 | 26 | 1019.7 |
| 20260503184545 | 82 | 0 | 0.0 | 3.0 | 0.00 | 0.00 | 0.00 | 29 | 1019.7 |
| 20260503184032 | 82 | 0 | 0.0 | 5.0 | 0.00 | 0.00 | 0.00 | 26 | 1019.8 |
| 20260503183528 | 81 | 40 | 0.0 | 5.0 | 0.00 | 0.00 | 0.00 | 27 | 1019.9 |
| 20260503183045 | 81 | 40 | 0.0 | 5.0 | 0.00 | 0.00 | 0.00 | 26 | 1019.9 |
| 20260503182530 | 81 | 0 | 0.0 | 4.0 | 0.00 | 0.00 | 0.00 | 29 | 1020.0 |
| 20260503182030 | 81 | 40 | 0.0 | 5.0 | 0.00 | 0.00 | 0.00 | 27 | 1020.1 |
| 20260503181542 | 81 | 40 | 1.0 | 5.0 | 0.00 | 0.00 | 0.00 | 25 | 1020.3 |
| 20260503181031 | 81 | 40 | 0.0 | 3.0 | 0.00 | 0.00 | 0.00 | 27 | 1020.4 |
| 20260503180529 | 81 | 0 | 0.0 | 3.0 | 0.00 | 0.00 | 0.00 | 29 | 1020.4 |
| 20260503175529 | 81 | 0 | 0.0 | 3.0 | 0.00 | 0.00 | 0.00 | 28 | 1020.7 |
| 20260503175029 | 81 | 0 | 0.0 | 4.0 | 0.00 | 0.00 | 0.00 | 32 | 1020.6 |
| 20260503174547 | 81 | 0 | 0.0 | 4.0 | 0.00 | 0.00 | 0.00 | 29 | 1020.8 |
| 20260503174032 | 80 | 40 | 0.0 | 4.0 | 0.00 | 0.00 | 0.00 | 30 | 1020.9 |
| 20260503173530 | 80 | 40 | 0.0 | 4.0 | 0.00 | 0.00 | 0.00 | 30 | 1021.0 |
| 20260503173052 | 80 | 40 | 0.0 | 3.0 | 0.00 | 0.00 | 0.00 | 30 | 1021.0 |
| 20260503172529 | 80 | 0 | 0.0 | 3.0 | 0.00 | 0.00 | 0.00 | 35 | 1021.2 |
| 20260503172029 | 80 | 0 | 0.0 | 3.0 | 0.00 | 0.00 | 0.00 | 34 | 1021.2 |
| 20260503171546 | 80 | 0 | 0.0 | 3.0 | 0.00 | 0.00 | 0.00 | 34 | 1021.3 |
| 20260503171029 | 79 | 0 | 0.0 | 3.0 | 0.00 | 0.00 | 0.00 | 35 | 1021.4 |
| 20260503170529 | 79 | 0 | 0.0 | 5.0 | 0.00 | 0.00 | 0.00 | 35 | 1021.4 |
| 20260503160107 | 74 | 40 | 0.0 | 5.0 | 0.00 | 0.00 | 0.00 | 39 | 1021.9 |
| 20260503150530 | 71 | 0 | 0.0 | 3.0 | 0.00 | 0.00 | 0.00 | 44 | 1021.9 |
| 20260503131030 | 54 | 0 | 0.0 | 0.0 | 0.00 | 0.00 | 0.00 | 75 | 1021.4 |
| 20260503130529 | 53 | 0 | 0.0 | 0.0 | 0.00 | 0.00 | 0.00 | 74 | 1021.5 |
| 20260503110529 | 51 | 0 | 0.0 | 0.0 | 0.00 | 0.00 | 0.00 | 66 | 1020.2 |
| 20260503081539 | 54 | 0 | 0.0 | 0.0 | 0.00 | 0.00 | 0.00 | 63 | 1020.0 |
| 20260503081029 | 54 | 0 | 0.0 | 0.0 | 0.00 | 0.00 | 0.00 | 63 | 1020.1 |
| 20260503080529 | 54 | 0 | 0.0 | 0.0 | 0.00 | 0.00 | 0.00 | 63 | 1020.1 |
| 20260503072532 | 56 | 0 | 0.0 | 0.0 | 0.00 | 0.00 | 0.00 | 61 | 1020.2 |
| 20260503072030 | 56 | 0 | 0.0 | 0.0 | 0.00 | 0.00 | 0.00 | 61 | 1020.3 |
| 20260503071551 | 56 | 0 | 0.0 | 0.0 | 0.00 | 0.00 | 0.00 | 61 | 1020.3 |
| 20260503071029 | 56 | 0 | 0.0 | 0.0 | 0.00 | 0.00 | 0.00 | 61 | 1020.4 |
| 20260503070532 | 56 | 0 | 0.0 | 0.0 | 0.00 | 0.00 | 0.00 | 60 | 1020.5 |
| 20260503060108 | 57 | 0 | 0.0 | 0.0 | 0.00 | 0.00 | 0.00 | 61 | 1020.5 |
| 20260503055030 | 57 | 0 | 0.0 | 0.0 | 0.00 | 0.00 | 0.00 | 61 | 1020.5 |
| 20260503054557 | 57 | 0 | 0.0 | 0.0 | 0.00 | 0.00 | 0.00 | 60 | 1020.4 |
| 20260503054030 | 57 | 0 | 0.0 | 0.0 | 0.00 | 0.00 | 0.00 | 60 | 1020.4 |
| 20260503053530 | 57 | 0 | 0.0 | 0.0 | 0.00 | 0.00 | 0.00 | 60 | 1020.5 |
| 20260503053041 | 57 | 0 | 0.0 | 0.0 | 0.00 | 0.00 | 0.00 | 61 | 1020.4 |
| 20260503052529 | 57 | 0 | 0.0 | 0.0 | 0.00 | 0.00 | 0.00 | 60 | 1020.3 |
| 20260503052032 | 57 | 0 | 0.0 | 0.0 | 0.00 | 0.00 | 0.00 | 61 | 1020.3 |
| 20260503051541 | 57 | 0 | 0.0 | 0.0 | 0.00 | 0.00 | 0.00 | 61 | 1020.3 |
| 20260503051032 | 57 | 0 | 0.0 | 0.0 | 0.00 | 0.00 | 0.00 | 61 | 1020.3 |
| 20260503050529 | 57 | 0 | 0.0 | 0.0 | 0.00 | 0.00 | 0.00 | 61 | 1020.3 |
| 20260503050041 | 57 | 0 | 0.0 | 0.0 | 0.00 | 0.00 | 0.00 | 61 | 1020.1 |
| 20260503045530 | 57 | 0 | 0.0 | 0.0 | 0.00 | 0.00 | 0.00 | 61 | 1020.1 |
| 20260503045029 | 57 | 0 | 0.0 | 0.0 | 0.00 | 0.00 | 0.00 | 61 | 1020.2 |
| 20260503044542 | 58 | 0 | 0.0 | 0.0 | 0.00 | 0.00 | 0.00 | 62 | 1020.1 |
| 20260503044029 | 58 | 0 | 0.0 | 0.0 | 0.00 | 0.00 | 0.00 | 61 | 1020.2 |
| 20260503043529 | 58 | 0 | 0.0 | 0.0 | 0.00 | 0.00 | 0.00 | 61 | 1020.2 |
| 20260503043050 | 58 | 0 | 0.0 | 0.0 | 0.00 | 0.00 | 0.00 | 62 | 1020.1 |
| 20260503042532 | 58 | 0 | 0.0 | 0.0 | 0.00 | 0.00 | 0.00 | 61 | 1020.1 |
| 20260503042029 | 58 | 0 | 0.0 | 0.0 | 0.00 | 0.00 | 0.00 | 61 | 1020.2 |
| 20260503041545 | 58 | 0 | 0.0 | 0.0 | 0.00 | 0.00 | 0.00 | 61 | 1020.2 |
| 20260503041028 | 58 | 0 | 0.0 | 0.0 | 0.00 | 0.00 | 0.00 | 60 | 1020.3 |
| 20260503040529 | 58 | 0 | 0.0 | 0.0 | 0.00 | 0.00 | 0.00 | 60 | 1020.3 |
| 20260503040057 | 58 | 0 | 0.0 | 0.0 | 0.00 | 0.00 | 0.00 | 60 | 1020.2 |
| 20260503035530 | 59 | 0 | 0.0 | 0.0 | 0.00 | 0.00 | 0.00 | 60 | 1020.1 |
| 20260503035030 | 59 | 0 | 0.0 | 0.0 | 0.00 | 0.00 | 0.00 | 59 | 1020.2 |
| 20260503034549 | 60 | 0 | 0.0 | 0.0 | 0.00 | 0.00 | 0.00 | 59 | 1020.1 |
| 20260503034030 | 60 | 0 | 0.0 | 0.0 | 0.00 | 0.00 | 0.00 | 58 | 1020.1 |
| 20260503033530 | 61 | 0 | 0.0 | 0.0 | 0.00 | 0.00 | 0.00 | 56 | 1020.2 |
| 20260503033046 | 62 | 0 | 0.0 | 0.0 | 0.00 | 0.00 | 0.00 | 56 | 1020.1 |
| 20260503032529 | 62 | 0 | 0.0 | 0.0 | 0.00 | 0.00 | 0.00 | 54 | 1020.1 |
| 20260503032029 | 62 | 0 | 0.0 | 0.0 | 0.00 | 0.00 | 0.00 | 53 | 1020.0 |